Regional Weather Roundup
Issued by NWS

Home | Current Version | Previous Version | Text Only | Print | Product List | Glossary Off
Versions: 1 2 3 4 5 6 7 8 9 10 11 12 13 14 15 16 17 18 19 20 21 22 23 24 25 26 27 28 29 30 31 32 33 34 35 36 37 38 39 40 41 42 43 44 45 46 47 48 49 50

000
ASUS43 KIND 200009
RWRIN

WEATHER ROUNDUP FOR INDIANA
NATIONAL WEATHER SERVICE INDIANAPOLIS IN
700 PM EST SUN NOV 19 2017

NOTE: "FAIR" INDICATES FEW OR NO CLOUDS BELOW 12,000 FEET WITH NO
SIGNIFICANT WEATHER AND/OR OBSTRUCTIONS TO VISIBILITY.

* - STATION DOES NOT REPORT WEATHER SUCH AS PRECIPITATION OR FOG.

+ - STATION NOT QUALITY CONTROLLED BY THE NATIONAL WEATHER SERVICE.
    USE DATA WITH CAUTION...ESPECIALLY DEWPOINT AND RELATIVE
    HUMIDITY OBSERVATIONS.

INZ001>003-010>013-019-020-200100-
NORTHWEST INDIANA

CITY           SKY/WX    TMP DP  RH WIND       PRES   REMARKS
GARY /AIRPORT/ PTCLDY    34  18  51 W14       30.07S WCI  24
KNOX *+        CLEAR     32  23  69 W9        30.06S WCI  24
LA PORTE +     CLEAR     29  19  66 W5        30.04F WCI  24
6HR MIN TEMP:  29; 6HR MAX TEMP:  35;

MICHIGAN CITY+ CLEAR     32  19  59 W7        30.05S WCI  26
MONTICELLO +   CLEAR     30  22  73 W8        30.09S WCI  22
6HR MIN TEMP:  30; 6HR MAX TEMP:  33;

RENSSELAER +   CLEAR     32  21  64 W10       30.10R WCI  24
VALPARAISO     CLEAR     31  21  66 W9        30.06S WCI  23
6HR MIN TEMP:  31; 6HR MAX TEMP:  38;


$$

LMZ046-743>745-200100-
SOUTHERN LAKE MICHIGAN

STATION/POSITION TIME  TEMP    WIND        PRES    WAVE
                       AIR SEA DIR/SP/G            HT
                 (UTC) (F)     (DEG/KT/KT) (MB)    (FT)
BURNS HARBOR     2340   35     240/  9/ 22 1017.9R
MICHIGAN CITY    2340   35     240/ 20/ 23   N/A

$$

INZ004-005-014>016-021>024-200100-
NORTH CENTRAL INDIANA

CITY           SKY/WX    TMP DP  RH WIND       PRES   REMARKS
GOSHEN         PTCLDY    30  20  66 W10       30.04R WCI  21
6HR MIN TEMP:  29; 6HR MAX TEMP:  35;

LOGANSPORT +   CLEAR     30  23  74 W12       30.10S WCI  21
PERU/GRISSOM   CLEAR     30  25  82 W12       30.08R WCI  20
6HR MIN TEMP:  30; 6HR MAX TEMP:  33;

ROCHESTER +    PTCLDY    32  23  69 W6        30.07S WCI  26
SOUTH BEND     CLEAR     29  21  72 SW7       30.04S WCI  22
6HR MIN TEMP:  28; 6HR MAX TEMP:  34;

WARSAW +       CLEAR     30  21  69 W8        30.05R WCI  23

$$

INZ006>009-017-018-025>027-200100-
NORTHEAST INDIANA

CITY           SKY/WX    TMP DP  RH WIND       PRES   REMARKS
AUBURN +       CLEAR     32  23  69 W6        30.04R WCI  26
FORT WAYNE     PTCLDY    32  25  75 W12       30.06R WCI  23
6HR MIN TEMP:  32; 6HR MAX TEMP:  36;

HUNTINGTON +   CLEAR     29  23  77 W9        30.07R WCI  21
6HR MIN TEMP:  29; 6HR MAX TEMP:  34;

KENDALLVILLE + CLEAR     31  22  71 W12G17    30.03R WCI  21

$$

INZ028-029-035-036-043>045-051>053-200100-
WEST CENTRAL INDIANA

CITY           SKY/WX    TMP DP  RH WIND       PRES   REMARKS
CRAWFORDSVL +  CLEAR     28  21  74 W8        30.09F WCI  20
6HR MIN TEMP:  27; 6HR MAX TEMP:  32;

GREENCASTLE +  CLEAR     30  21  69 W3        30.13F
LAFAYETTE      CLEAR     29  22  75 W9        30.11S WCI  20
6HR MIN TEMP:  29; 6HR MAX TEMP:  33;

TERRE HAUTE    CLEAR     31  21  66 W5        30.16S WCI  26
6HR MIN TEMP:  31; 6HR MAX TEMP:  37;


$$

INZ030>032-037>040-046>048-054>057-064-065-200100-
CENTRAL INDIANA

CITY           SKY/WX    TMP DP  RH WIND       PRES   REMARKS
CP ATTERBURY + CLEAR     30  23  74 W5        30.16R WCI  25
COLUMBUS       CLEAR     32  21  64 W7        30.16R WCI  26
FRANKFORT +    CLEAR     32  26  80 W9        30.11F WCI  24
6HR MIN TEMP:  32; 6HR MAX TEMP:  34;

GREENWOOD *+   CLEAR     32  26  76 W7        30.14R WCI  26
INDIANAPOLIS   PTCLDY    30  23  75 W10       30.13R WCI  21
6HR MIN TEMP:  30; 6HR MAX TEMP:  33;

-EAGLE CREEK   CLEAR     32  22  66 W7        30.12R WCI  26
6HR MIN TEMP:  31; 6HR MAX TEMP:  33;

KOKOMO +       CLEAR     30  25  81 W13       30.10R WCI  20
6HR MIN TEMP:  30; 6HR MAX TEMP:  32;

MARION +       MOCLDY    30  26  83 W12       30.10R WCI  21
MT COMFORT *+  CLEAR     27  25  93 W7        30.12R WCI  19
SHELBYVILLE    CLEAR     29  22  75 W6        30.13R WCI  23
6HR MIN TEMP:  29; 6HR MAX TEMP:  38;

ZIONSVILLE +   CLEAR     29  23  79 W7        30.11S WCI  22
6HR MIN TEMP:  28; 6HR MAX TEMP:  31;


$$

INZ033-034-041-042-049-050-058-059-200100-
EAST CENTRAL INDIANA

CITY           SKY/WX    TMP DP  RH WIND       PRES   REMARKS
MUNCIE         CLEAR     30  23  75 W7        30.09R WCI  23
6HR MIN TEMP:  30; 6HR MAX TEMP:  34;

RICHMOND +     PTCLDY    28  23  80 W13       30.10R WCI  18

$$

INZ060-061-067>069-081>083-085>088-200100-
SOUTHWEST INDIANA

CITY           SKY/WX    TMP DP  RH WIND       PRES   REMARKS
EVANSVILLE     CLEAR     35  22  58 SW3       30.20R
6HR MIN TEMP:  35; 6HR MAX TEMP:  41;

HUNTINGBURG +  CLEAR     32  23  69 W6        30.19R WCI  26
6HR MIN TEMP:  32; 6HR MAX TEMP:  40;

WASHINGTON +   CLEAR     33  20  59 W6        30.18R WCI  27
6HR MIN TEMP:  33; 6HR MAX TEMP:  39;


$$

INZ062-063-066-070>080-084-089>092-200100-
SOUTH CENTRAL AND SOUTHEAST INDIANA

CITY           SKY/WX    TMP DP  RH WIND       PRES   REMARKS
BLOOMINGTON    CLEAR     32  21  64 W7        30.15R WCI  26
6HR MIN TEMP:  32; 6HR MAX TEMP:  36;

MADISON *+     PTCLDY    32  23  69 W3        30.16R
NORTH VERNON + PTCLDY    30  23  74 W6        30.16R WCI  24
SEYMOUR +      PTCLDY    32  23  69 W5        30.17R WCI  27

$$





USA.gov is the U.S. government's official web portal to all federal, state and local government web resources and services.